STARLINK-4585 (53567 NORAD) Tracking and Keplerian Element Data

This shows tracking and keplerian element data for the satellite.

Feedback or suggestion? Click here.




ElementValue
Catalog53567
NameSTARLINK-4585
Epoch Orbit130
Epoch Day324.91667824
Epoch Year2022
RAAN62.6509
Inclination53.2151
Eccentricity0.0001744
Argument of Perigee56.1408
Mean Anonmoly313.2978
Mean Motion15.0884504
Decay Rate-0.00025557
L11 53567U 22101AS 22324.91667824 -.00025557 00000+0 -15931-2 0 9994
L22 53567 53.2151 62.6509 0001744 56.1408 313.2978 15.08845040 1305



Live tracking and technical data element details for STARLINK-4585 (NORAD 53567). STARLINK-4585 can be tracked NOW for your location showing map with azimuth and elevation plus other details from your city location.







IsCatalogInMostPopularTable: catalog: 53567, numindb: 5
Update: records affected: 1



GetName: 53567 STARLINK-4585

Hit Count: updated at: Thu, 08 Dec 2022 18:58:04 GMT